Terug naar catalogus

STARLINK-2666

ActiefCommunicatieVLEO
NORAD 48666·PAYLOAD·🇺🇸 United States

Gelanceerd May 26, 2021 vanaf Cape Canaveral Space Force Station

Loading…

Volgende Passages (komende 24 uur)

TLE

VersSource: CelesTrak SupGP

Epoch: Sep 14, 2026, 21:40 UTC

1 48666C 21044AE  26257.90326389 -.00007176  00000+0 -23076-3 0  2573
2 48666  53.1580 314.9518 0001238  78.0931 135.7397 15.31706413    14

Volg STARLINK-2666 in realtime met AllMySat

Download on the App Store